Location: High Point State Park
(41.2941°N, 74.6906°W)
Time: 07:53:41
(UTC-05:00)

Hubble Space Telescope - Visible Passes

Search period start: 22 February 2018 00:00
Search period end: 04 March 2018 00:00
Orbit: 537 x 541 km, 28.5° (Epoch: 21 February)

Date Brightness Start Highest point End Pass type
(mag) Time Alt. Az. Time Alt. Az. Time Alt. Az.
22 Feb 3.2 05:22:57 10° SSW 05:24:56 13° S 05:26:54 10° SE visible
23 Feb 3.1 05:12:57 11° SSW 05:14:31 14° S 05:16:37 10° SSE visible
24 Feb 3.0 05:03:15 13° SSW 05:04:08 14° S 05:06:15 10° SSE visible
25 Feb 3.0 04:53:33 14° S 04:53:43 14° S 04:55:48 10° SSE visible
26 Feb 3.1 04:43:51 13° S 04:43:51 13° S 04:45:17 10° SSE visible
27 Feb 3.3 04:34:11 11° SSE 04:34:11 11° SSE 04:34:38 10° SSE visible
